| time (UTC) | temp F | wind direction | speed knots | gust knots | rain 1hr in | rain 24hr in | rain mn in | humidity % | barometer mb |
| 20260508141555 | 47 | 285 | 5.2 | 8.7 | 0.00 | 0.88 | 0.00 | 96 | 1002.3 |
| 20260508140104 | 48 | 350 | 5.2 | 9.6 | 0.00 | 0.88 | 0.00 | 97 | 1002.5 |
| 20260508134605 | 48 | 304 | 5.2 | 8.7 | 0.00 | 0.88 | 0.00 | 98 | 1002.4 |
| 20260508133055 | 48 | 278 | 5.2 | 8.7 | 0.00 | 0.88 | 0.00 | 99 | 1002.3 |
| 20260508131555 | 48 | 337 | 3.5 | 7.0 | 0.00 | 0.88 | 0.00 | 99 | 1002.3 |
| 20260508130057 | 47 | 325 | 3.5 | 7.0 | 0.00 | 0.88 | 0.00 | 99 | 1002.3 |
| 20260508124554 | 46 | 337 | 2.6 | 4.3 | 0.00 | 0.88 | 0.00 | 99 | 1002.4 |
| 20260508123055 | 46 | 332 | 2.6 | 7.0 | 0.00 | 0.88 | 0.00 | 99 | 1002.4 |
| 20260508121558 | 46 | 350 | 5.2 | 7.8 | 0.00 | 0.88 | 0.00 | 99 | 1002.4 |
| 20260508120055 | 45 | 337 | 3.5 | 5.2 | 0.00 | 0.88 | 0.00 | 99 | 1002.3 |
| 20260508114608 | 45 | 337 | 1.7 | 2.6 | 0.00 | 0.88 | 0.00 | 99 | 1002.4 |
| 20260508113105 | 45 | 337 | 1.7 | 3.5 | 0.00 | 0.88 | 0.00 | 99 | 1002.6 |
| 20260508111612 | 45 | 337 | 2.6 | 4.3 | 0.00 | 0.88 | 0.00 | 99 | 1002.4 |
| 20260508110205 | 44 | 327 | 2.6 | 4.3 | 0.00 | 0.88 | 0.00 | 99 | 1002.5 |
| 20260508104600 | 44 | 2 | 2.6 | 3.5 | 0.00 | 0.88 | 0.00 | 99 | 1002.3 |
| 20260508103055 | 44 | 15 | 0.9 | 2.6 | 0.00 | 0.88 | 0.00 | 99 | 1002.3 |
| 20260508101556 | 44 | 0 | 0.9 | 2.6 | 0.00 | 0.88 | 0.00 | 99 | 1002.5 |
| 20260508100101 | 44 | 0 | 0.0 | 1.7 | 0.00 | 0.88 | 0.00 | 99 | 1002.5 |
| 20260508094600 | 44 | 0 | 0.0 | 1.7 | 0.00 | 0.88 | 0.00 | 99 | 1002.3 |
| 20260508093104 | 44 | 0 | 0.0 | 0.0 | 0.00 | 0.88 | 0.00 | 99 | 1002.2 |
| 20260508091608 | 43 | 27 | 0.9 | 1.7 | 0.00 | 0.88 | 0.00 | 99 | 1002.2 |
| 20260508090105 | 44 | 27 | 0.0 | 3.5 | 0.00 | 0.88 | 0.00 | 99 | 1001.9 |
| 20260508084555 | 44 | 28 | 0.9 | 2.6 | 0.00 | 0.88 | 0.00 | 99 | 1001.9 |
| 20260508083107 | 44 | 350 | 0.9 | 3.5 | 0.00 | 0.88 | 0.00 | 98 | 1002.1 |
| 20260508081601 | 44 | 357 | 2.6 | 7.0 | 0.00 | 0.88 | 0.00 | 98 | 1002.1 |
| 20260508080105 | 45 | 337 | 2.6 | 7.0 | 0.00 | 0.88 | 0.00 | 98 | 1001.8 |
| 20260508074607 | 45 | 327 | 2.6 | 7.0 | 0.00 | 0.88 | 0.00 | 99 | 1001.6 |
| 20260508073103 | 45 | 321 | 4.3 | 7.8 | 0.00 | 0.88 | 0.00 | 98 | 1001.6 |
| 20260508071557 | 45 | 307 | 2.6 | 7.0 | 0.00 | 0.88 | 0.00 | 98 | 1001.7 |
| 20260508070100 | 45 | 323 | 4.3 | 8.7 | 0.00 | 0.88 | 0.00 | 98 | 1001.9 |
| 20260508064555 | 46 | 331 | 1.7 | 8.7 | 0.00 | 0.88 | 0.00 | 98 | 1001.8 |
| 20260508063102 | 45 | 309 | 3.5 | 7.8 | 0.00 | 0.88 | 0.00 | 98 | 1001.8 |
| 20260508061604 | 46 | 287 | 3.5 | 6.1 | 0.00 | 0.88 | 0.00 | 98 | 1001.7 |
| 20260508060056 | 46 | 292 | 2.6 | 6.1 | 0.00 | 0.88 | 0.00 | 98 | 1001.8 |
| 20260508054555 | 46 | 276 | 2.6 | 6.1 | 0.00 | 0.88 | 0.00 | 98 | 1001.9 |
| 20260508053104 | 47 | 305 | 2.6 | 7.0 | 0.00 | 0.88 | 0.00 | 98 | 1001.9 |
| 20260508051605 | 47 | 281 | 1.7 | 4.3 | 0.00 | 0.88 | 0.00 | 98 | 1002.0 |
| 20260508050057 | 47 | 0 | 0.0 | 0.0 | 0.00 | 0.88 | 0.00 | 98 | 1001.9 |
| 20260508044608 | 48 | 0 | 0.0 | 1.7 | 0.00 | 0.88 | 0.00 | 98 | 1001.5 |
| 20260508043055 | 48 | 281 | 0.0 | 1.7 | 0.00 | 0.88 | 0.00 | 98 | 1001.6 |
| 20260508041610 | 48 | 0 | 0.9 | 2.6 | 0.00 | 0.88 | 0.00 | 98 | 1001.8 |
| 20260508040056 | 48 | 281 | 1.7 | 3.5 | 0.00 | 0.88 | 0.00 | 98 | 1002.1 |
| 20260508034600 | 48 | 281 | 2.6 | 4.3 | 0.00 | 0.88 | 0.00 | 98 | 1002.2 |
| 20260508033104 | 47 | 283 | 2.6 | 4.3 | 0.00 | 0.88 | 0.00 | 98 | 1002.3 |
| 20260508031603 | 48 | 296 | 2.6 | 5.2 | 0.00 | 0.88 | 0.00 | 97 | 1002.4 |
| 20260508030105 | 49 | 305 | 2.6 | 4.3 | 0.00 | 0.88 | 0.00 | 97 | 1002.2 |
| 20260508024603 | 49 | 282 | 1.7 | 3.5 | 0.00 | 0.88 | 0.88 | 97 | 1002.3 |
| 20260508023100 | 49 | 282 | 1.7 | 3.5 | 0.00 | 0.88 | 0.88 | 97 | 1002.6 |
| 20260508020059 | 49 | 282 | 0.9 | 3.5 | 0.00 | 0.88 | 0.88 | 97 | 1002.4 |
| 20260508014559 | 49 | 0 | 0.0 | 4.3 | 0.00 | 0.88 | 0.88 | 97 | 1002.2 |
| 20260508013057 | 49 | 282 | 3.5 | 7.0 | 0.00 | 0.88 | 0.88 | 97 | 1002.5 |
| 20260508011609 | 50 | 277 | 2.6 | 4.3 | 0.00 | 0.88 | 0.88 | 96 | 1002.8 |
| 20260508010103 | 50 | 296 | 3.5 | 6.1 | 0.00 | 0.88 | 0.88 | 96 | 1002.4 |
| 20260508004600 | 51 | 317 | 3.5 | 7.8 | 0.00 | 0.88 | 0.88 | 95 | 1002.1 |
| 20260508003056 | 52 | 305 | 6.1 | 9.6 | 0.00 | 0.88 | 0.88 | 95 | 1002.1 |
| 20260508001601 | 54 | 0 | 0.0 | 0.0 | 0.00 | 0.88 | 0.88 | 95 | 1002.0 |
| 20260508000100 | 54 | 0 | 0.0 | 2.6 | 0.00 | 0.88 | 0.88 | 95 | 1001.9 |
| 20260507234559 | 54 | 196 | 0.0 | 1.7 | 0.00 | 0.88 | 0.88 | 95 | 1001.7 |
| 20260507233054 | 54 | 0 | 0.0 | 1.7 | 0.00 | 0.88 | 0.88 | 95 | 1001.7 |
| 20260507231559 | 54 | 0 | 0.0 | 0.0 | 0.00 | 0.88 | 0.88 | 94 | 1001.9 |
| 20260507230057 | 54 | 0 | 0.9 | 2.6 | 0.00 | 0.88 | 0.88 | 94 | 1001.9 |
| 20260507224601 | 54 | 0 | 0.0 | 4.3 | 0.00 | 0.88 | 0.88 | 94 | 1002.3 |
| 20260507223057 | 54 | 194 | 3.5 | 9.6 | 0.00 | 0.88 | 0.88 | 94 | 1002.0 |
| 20260507221556 | 54 | 209 | 2.6 | 7.0 | 0.00 | 0.88 | 0.88 | 94 | 1002.1 |
| 20260507220054 | 54 | 173 | 6.1 | 10.4 | 0.00 | 0.88 | 0.88 | 94 | 1001.9 |
| 20260507214555 | 54 | 154 | 4.3 | 8.7 | 0.00 | 0.88 | 0.88 | 95 | 1001.7 |
| 20260507213054 | 54 | 145 | 4.3 | 9.6 | 0.00 | 0.88 | 0.88 | 95 | 1001.4 |
| 20260507211554 | 55 | 133 | 5.2 | 10.4 | 0.00 | 0.88 | 0.88 | 95 | 1001.7 |
| 20260507210056 | 55 | 145 | 7.0 | 12.2 | 0.00 | 0.88 | 0.88 | 95 | 1001.8 |
| 20260507204555 | 55 | 175 | 5.2 | 10.4 | 0.02 | 0.88 | 0.88 | 96 | 1002.0 |
| 20260507203054 | 54 | 169 | 2.6 | 11.3 | 0.03 | 0.88 | 0.88 | 96 | 1001.8 |
| 20260507201606 | 54 | 169 | 6.1 | 12.2 | 0.03 | 0.88 | 0.88 | 96 | 1001.0 |
| 20260507200057 | 53 | 182 | 7.8 | 15.6 | 0.06 | 0.87 | 0.87 | 96 | 1000.9 |
| 20260507194554 | 53 | 114 | 8.7 | 13.0 | 0.11 | 0.85 | 0.85 | 96 | 1000.9 |
| 20260507193056 | 54 | 135 | 7.0 | 11.3 | 0.22 | 0.85 | 0.85 | 96 | 1002.3 |
| 20260507191558 | 53 | 121 | 5.2 | 8.7 | 0.28 | 0.84 | 0.84 | 96 | 1002.2 |
| 20260507190059 | 54 | 136 | 3.5 | 8.7 | 0.31 | 0.81 | 0.81 | 95 | 1002.8 |
| 20260507184559 | 54 | 165 | 6.1 | 13.0 | 0.35 | 0.74 | 0.74 | 95 | 1003.2 |
| 20260507183055 | 54 | 139 | 6.1 | 12.2 | 0.33 | 0.62 | 0.62 | 94 | 1003.9 |
| 20260507181556 | 55 | 178 | 7.0 | 13.9 | 0.41 | 0.55 | 0.55 | 94 | 1003.9 |
| 20260507180057 | 55 | 177 | 8.7 | 14.8 | 0.48 | 0.49 | 0.49 | 94 | 1004.0 |
| 20260507174605 | 55 | 181 | 7.0 | 16.5 | 0.38 | 0.39 | 0.39 | 94 | 1004.3 |
| 20260507173101 | 55 | 183 | 6.1 | 12.2 | 0.29 | 0.29 | 0.29 | 94 | 1005.0 |
| 20260507171604 | 55 | 193 | 8.7 | 20.9 | 0.14 | 0.14 | 0.14 | 93 | 1004.9 |
| 20260507170055 | 57 | 179 | 6.1 | 21.7 | 0.01 | 0.01 | 0.01 | 93 | 1004.2 |
| 20260507164556 | 58 | 154 | 9.6 | 25.2 | 0.00 | 0.00 | 0.00 | 93 | 1003.9 |
| 20260507163122 | 58 | 176 | 9.6 | 26.1 | 0.00 | 0.00 | 0.00 | 92 | 1004.0 |
| 20260507161557 | 58 | 138 | 7.8 | 20.9 | 0.00 | 0.00 | 0.00 | 91 | 1004.3 |
| 20260507160056 | 59 | 146 | 11.3 | 20.0 | 0.00 | 0.00 | 0.00 | 88 | 1004.7 |
| 20260507154557 | 59 | 173 | 13.0 | 29.5 | 0.00 | 0.00 | 0.00 | 87 | 1005.2 |
| 20260507153056 | 59 | 164 | 13.9 | 26.9 | 0.00 | 0.00 | 0.00 | 87 | 1005.5 |
| 20260507151555 | 58 | 152 | 12.2 | 22.6 | 0.00 | 0.00 | 0.00 | 88 | 1005.9 |
| 20260507150101 | 58 | 175 | 13.9 | 30.4 | 0.00 | 0.00 | 0.00 | 88 | 1006.5 |
| 20260507144617 | 59 | 157 | 10.4 | 25.2 | 0.00 | 0.00 | 0.00 | 88 | 1006.9 |
| 20260507143059 | 59 | 150 | 11.3 | 27.8 | 0.00 | 0.00 | 0.00 | 85 | 1007.1 |